[[{"header":{"parameterUnit":"m.s-1","parameterCategory":1,"la1":30.2991,"la2":30.254,"lo1":-89.0895,"lo2":-89.0444,"dy":0.0017,"dx":0.0017,"nx":28,"ny":28,"refTime":"2025-06-15T21:00:00:Z","depth":0,"parameterNumber":2,"parameterNumberName":"U-component_of_WINDS"},"data":[0,0,0,0,0,0,0,0,0,0,0,0,0,0,0,0,0,0,0,0,0,0,0,0,0,0,0,0,0,0,0,0,0,0,0,0,0,0,0,0,0,0,0,0,0,0,0,0,0,0,0,0,0,0,0,0,0,0,1.6371,1.6372,0,1.6499,1.6501,1.6502,1.6515,1.6513,1.6512,1.651,1.6648,1.6653,1.6657,0,0,0,0,0,0,0,0,0,0,0,0,0,1.614,1.6144,1.637,1.6372,1.6374,1.6499,1.6501,1.6503,1.6515,1.6513,1.6511,1.651,1.6646,1.6652,1.6658,0,0,0,0,0,0,0,0,0,0,0,0,0,1.6252,1.6146,1.637,1.6395,1.6398,1.6499,1.6501,1.6503,1.6515,1.6513,1.6511,1.6509,1.6644,1.6651,1.6659,1.6745,0,0,1.6681,1.6685,0,0,0,0,0,0,0,0,1.6245,1.626,1.639,1.6393,1.6397,1.6489,1.647,1.6585,1.6516,1.6471,1.651,1.6508,1.6597,1.6608,1.6637,1.6752,1.6758,1.6682,1.6686,1.669,1.6692,0,0,0,0,0,0,0,1.6238,1.6255,1.6422,1.6391,1.6396,1.6401,1.6415,1.6492,1.6544,1.6475,1.6476,1.6491,1.6599,1.663,1.664,1.676,1.6682,1.6688,1.6693,1.6696,1.6953,1.6955,0,0,0,0,0,0,1.6225,1.6248,1.6418,1.6425,1.6315,1.6407,1.6422,1.6462,1.6543,1.6553,1.6492,1.6491,1.6618,1.6632,1.6645,1.6752,1.669,1.6697,1.6701,1.695,1.6953,1.6956,0,0,0,0,0,0,1.622,1.624,1.6412,1.6337,1.636,1.6413,1.6457,1.6465,1.6496,1.6556,1.6566,1.6514,1.6617,1.6635,1.672,1.6757,1.67,1.6707,1.6948,1.6951,1.6955,1.6966,0,0,0,0,0,0,1.6213,1.6238,1.627,1.6338,1.6363,1.6484,1.6459,1.6469,1.6508,1.6507,1.6579,1.6589,1.6617,1.6709,1.6727,1.6766,1.6712,1.6944,1.6949,1.6953,1.6962,1.6969,1.6975,0,0,0,0,0,1.6205,1.6269,1.6271,1.6292,1.6405,1.6486,1.6501,1.6529,1.6511,1.6545,1.6583,1.6587,1.675,1.6718,1.6738,1.678,1.6942,1.6948,1.6953,1.6959,1.6968,1.6975,0,0,0,0,0,0,1.6206,1.6278,1.6282,1.637,1.6421,1.6487,1.6531,1.6537,1.6596,1.6593,1.6628,1.6644,1.6728,1.6763,1.6726,1.6868,1.6844,1.6854,1.6842,1.6851,1.6857,1.6847,1.6718,0,0,0,0,0,1.6216,1.6274,1.6335,1.6407,1.6432,1.6477,1.6513,1.6531,1.6586,1.6609,1.6654,1.6709,1.6772,1.6814,1.6875,1.6968,1.6984,1.7006,1.7013,1.7018,1.7026,1.7077,1.7088,1.6973,1.6973,1.6973,0,0,1.6238,1.6285,1.632,1.6408,1.645,1.6511,1.6495,1.656,1.6606,1.6619,1.6702,1.6737,1.6801,1.689,1.6931,1.6921,1.7061,1.7025,1.7028,1.7034,1.7084,1.7095,1.7104,1.6977,1.6976,1.6976,0,0,1.6309,1.635,1.6414,1.6456,1.652,1.6549,1.6564,1.663,1.6653,1.6736,1.6747,1.6803,1.6912,1.6957,1.6994,1.7082,1.7088,1.7102,1.7135,1.7185,1.7194,1.7202,1.7234,1.7245,1.711,1.711,1.711,0,1.6329,1.6419,1.6447,1.6511,1.655,1.6563,1.6629,1.667,1.675,1.6778,1.6765,1.6901,1.6945,1.7045,1.7066,1.7096,1.7116,1.7094,1.719,1.7199,1.7207,1.7237,1.7249,1.7111,1.7111,1.7111,1.7111,0,1.6441,1.6504,1.6548,1.6624,1.6668,1.6733,1.6772,1.6814,1.6827,1.6859,1.6944,1.6997,1.707,1.7095,1.711,1.7197,1.7189,1.7183,1.716,1.7218,1.7248,1.7259,1.7113,1.7112,1.7112,1.7112,0,0,1.6516,1.6605,1.6621,1.6656,1.6727,1.6776,1.6843,1.6912,1.6947,1.7003,1.706,1.7152,1.7146,1.7188,1.7209,1.7253,1.7319,1.7242,1.7244,1.7254,1.7419,1.7422,1.7435,1.7323,1.7326,1.7328,1.7413,0,1.6594,1.671,1.6737,1.6838,1.6896,1.691,1.6968,1.7018,1.7049,1.7105,1.714,1.7204,1.7193,1.7218,1.7262,1.7301,1.7353,1.7296,1.7378,1.738,1.736,1.745,1.7454,1.7532,1.7425,1.7427,1.7428,0,1.6702,1.6758,1.6863,1.6926,1.6952,1.7003,1.7069,1.7121,1.718,1.7199,1.7246,1.7262,1.7333,1.7307,1.7405,1.7366,1.7402,1.7426,1.743,1.7438,1.7407,1.7461,1.7558,1.7569,1.7446,1.7445,1.7444,0,1.6745,1.6847,1.6923,1.6953,1.7028,1.7064,1.7098,1.7153,1.7194,1.7252,1.7278,1.7345,1.7381,1.7433,1.7467,1.7445,1.7563,1.754,1.7583,1.7582,1.7607,1.7604,1.771,1.763,1.763,1.763,1.7629,0,1.683,1.6894,1.6944,1.6991,1.7063,1.7095,1.7166,1.72,1.725,1.7305,1.7322,1.7373,1.7415,1.7473,1.75,1.7578,1.7594,1.7613,1.7619,1.7611,1.7609,1.7635,1.763,1.7633,1.7632,1.7631,1.7631,0,1.689,1.6926,1.701,1.7074,1.7092,1.7143,1.7199,1.7246,1.7277,1.7346,1.7365,1.7415,1.7484,1.7523,1.761,1.7628,1.7715,1.7719,1.7694,1.7697,1.7737,1.7733,1.7863,1.7882,1.7789,1.779,1.7791,0,1.6941,1.699,1.706,1.7097,1.713,1.719,1.7231,1.7264,1.7306,1.7376,1.7415,1.7484,1.7541,1.7651,1.7696,1.7763,1.7769,1.781,1.7779,1.7769,1.7769,1.7765,1.7771,1.7815,1.7816,1.7816,1.7817,0,1.7028,1.7043,1.71,1.7164,1.7211,1.7263,1.7315,1.7345,1.7388,1.7434,1.7504,1.7548,1.7636,1.7705,1.7776,1.7812,1.7822,1.7826,1.784,1.7832,1.7815,1.7824,1.7708,1.7823,1.7823,1.7822,1.7822,1.7821,1.7085,1.713,1.7185,1.7248,1.729,1.7338,1.7385,1.7423,1.7481,1.7554,1.7571,1.7644,1.7702,1.7797,1.7836,1.7895,1.7887,1.7907,1.7912,1.7916,1.7917,1.7806,1.7908,1.7908,1.7907,1.7907,1.7907,0,1.7173,1.7209,1.7267,1.7338,1.7388,1.7391,1.7449,1.7491,1.7555,1.7607,1.7663,1.7743,1.781,1.7861,1.793,1.7967,1.7973,1.7984,1.7981,1.799,1.792,1.7901,1.7978,1.7978,1.7978,1.7978,1.7978,1.7978,1.7224,1.7299,1.7321,1.7418,1.7455,1.7525,1.7558,1.7603,1.7645,1.7733,1.7788,1.782,1.7872,1.7945,1.8007,1.802,1.8045,1.8055,1.8069,1.8002,1.7995,1.7987,1.797,1.806,1.806,1.8134,1.8134,1.8135]},{"header":{"parameterUnit":"m.s-1","parameterCategory":1,"la1":30.2991,"la2":30.254,"lo1":-89.0895,"lo2":-89.0444,"dy":0.0017,"dx":0.0017,"nx":28,"ny":28,"refTime":"2025-06-15T21:00:00:Z","depth":0,"parameterNumber":3,"parameterNumberName":"V-component_of_WINDS"},"data":[0,0,0,0,0,0,0,0,0,0,0,0,0,0,0,0,0,0,0,0,0,0,0,0,0,0,0,0,0,0,0,0,0,0,0,0,0,0,0,0,0,0,0,0,0,0,0,0,0,0,0,0,0,0,0,0,0,0,2.6778,2.678,0,2.6995,2.6997,2.6999,2.7031,2.7029,2.7027,2.7025,2.725,2.7258,2.7266,0,0,0,0,0,0,0,0,0,0,0,0,0,2.6394,2.6401,2.6778,2.678,2.6783,2.6994,2.6997,2.7,2.7031,2.7029,2.7027,2.7024,2.7248,2.7257,2.7266,0,0,0,0,0,0,0,0,0,0,0,0,0,2.6581,2.6403,2.6777,2.6824,2.683,2.6994,2.6997,2.7001,2.7032,2.7029,2.7026,2.7023,2.7244,2.7256,2.7268,2.74,0,0,2.7304,2.7309,0,0,0,0,0,0,0,0,2.657,2.6595,2.6814,2.6821,2.6828,2.6983,2.6944,2.7135,2.7033,2.6955,2.7025,2.7022,2.7164,2.7182,2.7229,2.7411,2.742,2.7305,2.7312,2.7317,2.732,0,0,0,0,0,0,0,2.6557,2.6586,2.6864,2.6818,2.6826,2.6835,2.6858,2.6981,2.7074,2.6962,2.6965,2.699,2.7167,2.7218,2.7235,2.7423,2.7304,2.7315,2.7322,2.7327,2.7726,2.7729,0,0,0,0,0,0,2.6535,2.6575,2.6857,2.687,2.6689,2.6845,2.6871,2.6936,2.7073,2.709,2.6992,2.699,2.7199,2.7221,2.7243,2.7408,2.7317,2.7328,2.7334,2.7722,2.7727,2.773,0,0,0,0,0,0,2.6527,2.656,2.6848,2.6723,2.676,2.6854,2.6928,2.6942,2.6993,2.7095,2.7112,2.7027,2.7198,2.7226,2.7361,2.7417,2.7333,2.7344,2.7718,2.7724,2.7729,2.7739,0,0,0,0,0,0,2.6516,2.6557,2.6607,2.6724,2.6767,2.6961,2.6931,2.6948,2.7013,2.7013,2.7132,2.7149,2.7198,2.7343,2.7373,2.7431,2.7353,2.7714,2.7721,2.7727,2.7735,2.7744,2.7753,0,0,0,0,0,2.6502,2.6602,2.661,2.6644,2.6832,2.6964,2.6989,2.7042,2.7017,2.707,2.7135,2.7146,2.7405,2.7357,2.739,2.7453,2.771,2.7719,2.7726,2.773,2.7742,2.7753,0,0,0,0,0,0,2.6491,2.6618,2.6628,2.6769,2.6855,2.6969,2.7037,2.7053,2.7149,2.7145,2.7207,2.7234,2.7366,2.7423,2.7366,2.7589,2.7556,2.7571,2.7547,2.756,2.7569,2.7553,2.7363,0,0,0,0,0,2.6504,2.66,2.6707,2.6821,2.6864,2.6943,2.7002,2.7035,2.7128,2.7165,2.7241,2.7331,2.7433,2.7499,2.7599,2.7742,2.777,2.7802,2.7811,2.7818,2.7831,2.7913,2.7929,2.7757,2.7757,2.7756,0,0,2.6534,2.6616,2.6673,2.6821,2.6892,2.6991,2.6974,2.7079,2.7154,2.7182,2.7314,2.7372,2.7477,2.7617,2.7682,2.7668,2.7885,2.7828,2.7833,2.7843,2.7923,2.7939,2.7953,2.7762,2.7761,2.776,0,0,2.6639,2.671,2.6813,2.6885,2.6992,2.7044,2.7068,2.7181,2.722,2.7353,2.7377,2.7467,2.7641,2.7715,2.7775,2.7909,2.7923,2.7939,2.7988,2.8067,2.8081,2.8093,2.8142,2.8159,2.7951,2.7951,2.7951,0,2.6663,2.6813,2.6865,2.697,2.7035,2.7063,2.717,2.7236,2.7371,2.7416,2.7398,2.7618,2.769,2.7849,2.7881,2.7928,2.796,2.7927,2.8074,2.8087,2.81,2.8147,2.8166,2.7953,2.7953,2.7952,2.7952,0,2.6838,2.6941,2.7012,2.7141,2.7214,2.7319,2.7388,2.7455,2.7482,2.7536,2.7671,2.7759,2.7878,2.7917,2.7944,2.808,2.8068,2.8061,2.803,2.8117,2.8163,2.8181,2.7955,2.7954,2.7954,2.7954,0,0,2.6944,2.7099,2.7125,2.7184,2.7304,2.7386,2.7492,2.7607,2.7665,2.7757,2.7849,2.7995,2.799,2.8058,2.8094,2.8163,2.8265,2.8148,2.8151,2.8168,2.8422,2.8428,2.8448,2.8274,2.8277,2.828,2.8414,0,2.7065,2.7255,2.7305,2.7467,2.7564,2.7592,2.7686,2.777,2.7823,2.7914,2.7973,2.8077,2.8061,2.8103,2.8172,2.8238,2.8317,2.8228,2.8362,2.8366,2.8337,2.8472,2.8479,2.8601,2.8432,2.8435,2.8437,0,2.7232,2.7327,2.7498,2.7607,2.7649,2.7732,2.7842,2.7928,2.8025,2.8059,2.8135,2.8164,2.8277,2.8237,2.8395,2.8334,2.8391,2.8432,2.8438,2.8454,2.8409,2.8494,2.8641,2.866,2.8466,2.8464,2.8462,0,2.7294,2.7465,2.759,2.7639,2.7769,2.7826,2.7883,2.7977,2.8043,2.8139,2.8183,2.829,2.835,2.8434,2.8491,2.8457,2.8645,2.861,2.8678,2.8677,2.8719,2.8716,2.8879,2.8751,2.8751,2.8751,2.875,0,2.7426,2.753,2.762,2.7697,2.7816,2.7872,2.7988,2.8045,2.8128,2.8218,2.8248,2.8332,2.8402,2.8496,2.8541,2.8666,2.8693,2.8724,2.8736,2.8723,2.872,2.8764,2.8758,2.8756,2.8755,2.8754,2.8753,0,2.7517,2.7581,2.7719,2.783,2.786,2.7943,2.8038,2.8115,2.8168,2.8282,2.8312,2.8396,2.8508,2.8573,2.8714,2.8745,2.8884,2.889,2.8852,2.8857,2.8923,2.8917,2.9122,2.9153,2.9002,2.9003,2.9004,0,2.7598,2.7679,2.7798,2.786,2.7917,2.8017,2.8084,2.8143,2.8212,2.8328,2.8391,2.8504,2.8599,2.8776,2.8851,2.8959,2.897,2.9034,2.8986,2.8972,2.8974,2.8969,2.8978,2.9043,2.9044,2.9045,2.9046,0,2.7735,2.7763,2.7858,2.7966,2.8045,2.8133,2.822,2.8269,2.8342,2.8418,2.8533,2.8605,2.8749,2.8862,2.8977,2.9036,2.9055,2.906,2.9082,2.9072,2.9047,2.9064,2.8876,2.9056,2.9055,2.9054,2.9054,2.9053,2.7825,2.7899,2.7995,2.8101,2.8172,2.8253,2.8331,2.8394,2.849,2.8611,2.8639,2.876,2.8856,2.9011,2.9073,2.9169,2.9158,2.919,2.9198,2.9206,2.9209,2.9029,2.919,2.919,2.9189,2.9189,2.9189,0,2.7966,2.8029,2.8126,2.8246,2.833,2.8338,2.8435,2.8505,2.861,2.8697,2.8789,2.8921,2.903,2.9113,2.9225,2.9286,2.9298,2.9314,2.9312,2.9326,2.9211,2.9182,2.9303,2.9303,2.9303,2.9303,2.9303,2.9303,2.805,2.8176,2.8215,2.8377,2.8439,2.8557,2.8612,2.8687,2.8757,2.8902,2.8993,2.9046,2.9132,2.9251,2.9352,2.9374,2.9415,2.943,2.9454,2.9346,2.9333,2.9322,2.9295,2.9438,2.9438,2.9561,2.9562,2.9563]}]]